Location: Pasadena, ca
(34.1243°N, 118.1037°W)
Time: 08:09:24
(UTC-08:00)

OTV 5 (USA 277) - Pass Details

Date: 07 October 2017
Orbit: 404 x 417 km, 43.0° (Epoch: 07 September)

Event Time Altitude Azimuth Distance (km) Brightness Sun altitude
Rises 19:07:19 0° 208° (SSW) 2,339 ? -8.9°
Reaches altitude 10° 19:09:45 10° 191° (S) 1,480 ? -9.5°
Maximum altitude 19:12:19 20° 141° (SE) 1,006 ? -10.0°
Enters shadow 19:13:58 15° 103° (ESE) 1,224 ? -10.3°
